Home > Weather > Saint John's > Past weeks

Flag for Antigua and Barbuda Past Weather in Saint John's, Antigua and Barbuda — Yesterday and Last 2 Weeks

Now
82 °F

Passing clouds.


Feels Like: 89 °F
Forecast: 80 / 87 °F
Wind: 7 mph from Southeast

Location: Vc Bird International Antigua Airport

Current Time: Aug 29, 2016 at 12:00:31 AM

Latest Report: Aug 28, 2016 at 11:00 PM


Visibility: N/A

Pressure: 30.01 "Hg

Humidity: 79%

Dew Point: 75 °F

Location of Saint John'sLocation

Past Weather in Saint John's — Graph

°F

Saint John's Temperature Yesterday

Maximum temperature yesterday: 86 °F (at 12:00 PM)
Minimum temperature yesterday: 77 °F (at 3:00 AM)
Average temperature yesterday: 82 °F

High & Low Weather Summary for the Past Weeks

 TemperatureHumidityPressure
High88 °F (Aug 16, 12:00 PM)94% (Aug 24, 1:00 AM)30.04 "Hg (Aug 24, 1:00 AM)
Low72 °F (Aug 24, 9:00 AM)59% (Aug 22, 10:00 AM)29.83 "Hg (Aug 24, 2:00 AM)
Average83 °F76%29.97 "Hg
* Reported Aug 13 10:00 PM — Aug 28 10:00 PM, Saint John's, Weather by CustomWeather, © 2016

Note: Actual official high and low records may vary slightly from our data, if they occured in-between our weather recording intervals... More about our weather records

Advertising

Saint John's Weather History for the Previous 24 Hours

Scroll right to see more
 ConditionsComfort  
Time TempWeatherWind HumidityBarometerVisibility
10:00 PM
Sun, Aug 28
82 °FPassing clouds.10 mph79%29.98 "HgN/A
9:00 PM82 °FPassing clouds.8 mph79%29.98 "HgN/A
8:00 PM82 °FPassing clouds.6 mph79%29.95 "HgN/A
7:00 PM82 °FPassing clouds.7 mph79%29.95 "HgN/A
6:00 PM84 °FPassing clouds.7 mph70%29.95 "HgN/A
5:00 PM86 °FPassing clouds.9 mph70%29.95 "HgN/A
4:00 PM86 °FScattered clouds.8 mph70%29.95 "HgN/A
3:00 PM86 °FPassing clouds.10 mph66%29.95 "HgN/A
2:00 PM86 °FPassing clouds.10 mph70%29.98 "HgN/A
1:00 PM86 °FPassing clouds.9 mph70%29.98 "HgN/A
12:00 PM86 °FPassing clouds.10 mph75%29.98 "HgN/A
11:00 AM84 °FPassing clouds.8 mph79%30.01 "HgN/A
10:00 AM84 °FPassing clouds.6 mph74%30.01 "HgN/A
9:00 AM82 °FScattered clouds.6 mph79%29.98 "HgN/A
8:00 AM82 °FPassing clouds.3 mph84%29.98 "HgN/A
7:00 AM79 °FScattered clouds.3 mph84%29.95 "HgN/A
6:00 AM77 °FPassing clouds.3 mph89%29.95 "HgN/A
5:00 AM77 °FPassing clouds.2 mph89%29.92 "HgN/A
4:00 AM77 °FPassing clouds.1 mph89%29.92 "HgN/A
3:00 AM77 °FPassing clouds.3 mph89%29.92 "HgN/A
2:00 AM79 °FPassing clouds.2 mph84%29.92 "HgN/A
1:00 AM79 °FPassing clouds.1 mph89%29.95 "HgN/A
12:00 AM79 °FPassing clouds.3 mph84%29.95 "HgN/A
Weather by CustomWeather, © 2016

See weather overviewHow to use our weather pages